This demonstration page uses our WeatherBlox Daily Observations layout. Learn more.

Left ArrowRight Arrow

Hourly Observations for April 4, 2018

Temp ( °F °C ) Dew Point ( °F °C ) Humidity (%) Winds ( mph kmh ) Pressure ( in mb ) Visibility ( mi km ) Precip ( " mm )
12:56 am 00:56 Clear 18 -7.8 12 -11.1 77 77 N 6 9 30.34 1027 10 16 0.00 0.00
1:56 am 01:56 Clear 17 -8.3 11 -11.7 77 77 NNE 5 7 30.35 1028 10 16 0.00 0.00
2:56 am 02:56 Clear 15 -9.4 11 -11.7 84 84 W 3 6 30.35 1028 10 16 0.00 0.00
3:56 am 03:56 Clear 16 -8.9 11 -11.7 80 80 SW 5 7 30.36 1028 10 16 0.00 0.00
4:56 am 04:56 Clear 15 -9.4 11 -11.7 84 84 ESE 3 6 30.34 1027 10 16 0.00 0.00
5:56 am 05:56 Clear 15 -9.4 12 -11.1 88 88 S 3 6 30.34 1028 10 16 0.00 0.00
6:56 am 06:56 Clear 14 -10 11 -11.7 88 88 SSW 7 11 30.34 1027 10 16 0.00 0.00
7:56 am 07:56 Sunny 16 -8.9 13 -10.6 88 88 S 6 9 30.33 1027 10 16 0.00 0.00
8:56 am 08:56 Sunny 22 -5.6 17 -8.3 82 82 S 10 17 30.30 1026 10 16 0.00 0.00
9:56 am 09:56 Sunny 27 -2.8 20 -6.7 75 75 S 13 20 30.29 1026 10 16 0.00 0.00
10:56 am 10:56 Sunny 31 -0.6 20 -6.7 64 64 SSE 16 26 30.26 1025 10 16 0.00 0.00
11:56 am 11:56 Sunny 35 1.7 19 -7.2 52 52 S 20 31 30.21 1023 10 16 0.00 0.00
12:56 pm 12:56 Sunny 40 4.4 19 -7.2 43 43 S 21 33 30.19 1022 10 16 0.00 0.00
1:56 pm 13:56 Sunny 43 6.1 20 -6.7 40 40 S 22 35 30.15 1021 10 16 0.00 0.00
2:56 pm 14:56 Sunny 49 9.4 21 -6.1 33 33 S 25 41 30.09 1019 10 16 0.00 0.00
3:56 pm 15:56 Sunny 54 12.2 21 -6.1 28 28 S 22 35 30.04 1017 10 16 0.00 0.00
4:56 pm 16:56 Sunny 57 13.9 21 -6.1 25 25 SSE 17 28 30.01 1016 10 16 0.00 0.00
5:56 pm 17:56 Sunny 59 15 19 -7.2 21 21 S 21 33 29.98 1015 10 16 0.00 0.00
6:52 pm 18:52 Mostly Sunny 57 14 19 -7 23 23 SSE 13 20 29.91 1013 10 16 0.00 0.00
6:56 pm 18:56 Mostly Sunny 57 13.9 21 -6.1 25 25 SSE 10 17 29.98 1015 10 16 0.00 0.00
7:56 pm 19:56 Cloudy 52 11.1 22 -5.6 31 31 SE 15 24 29.99 1016 10 16 0.00 0.00
8:56 pm 20:56 Cloudy 48 8.9 24 -4.4 39 39 SE 14 22 30.01 1016 10 16 0.00 0.00
9:56 pm 21:56 Cloudy 45 7.2 23 -5 42 42 E 13 20 30.02 1017 10 16 0.00 0.00
10:56 pm 22:56 Clear 41 5 24 -4.4 51 51 ESE 13 20 30.01 1016 10 16 0.00 0.00
11:56 pm 23:56 Clear 38 3.3 24 -4.4 57 57 SE 7 11 30.01 1016 10 16 0.00 0.00

Powered by AerisWeather